Location: Unspecified
(0.0000°N, 0.0000°E)
Time: 05:39:49
(UTC+02:00)

ARIANE 5 R/B - Visible Passes

Search period start: 02 May 2016 00:00
Search period end: 12 May 2016 00:00
Orbit: 547 x 35579 km, 5.4° (Epoch: 30 April)

Date Brightness Start Highest point End Pass type
(mag) Time Alt. Az. Time Alt. Az. Time Alt. Az.
02 May 7.4 17:19:06 10° WNW 01:23:49 58° E 03:11:29 10° E visible
03 May 10.0 21:50:36 10° E 22:23:04 11° E 22:50:14 10° E visible
04 May 9.9 02:05:21 10° W 03:20:06 21° W 05:40:03 10° W visible
04 May 8.1 22:28:11 10° W 00:15:41 70° W 08:24:03 10° E visible
05 May 8.0 19:21:58 10° W 19:41:07 81° N 05:21:30 10° E visible
06 May 6.6 16:21:20 10° WNW 00:24:38 45° E 02:07:24 10° E visible
08 May 9.7 00:48:44 10° W 02:22:19 33° W 06:22:43 10° W visible
08 May 8.1 21:27:37 10° W 23:15:10 84° W 07:26:01 10° E visible
09 May 8.5 18:23:44 10° W 02:28:07 81° SE 04:21:47 10° E visible
10 May 9.3 19:37:46 10° E 23:26:16 32° E 00:59:03 10° E visible
